Date,TemperatureHighF,TemperatureAvgF,TemperatureLowF,DewpointHighF,DewpointAvgF,DewpointLowF,HumidityHigh,HumidityAvg,HumidityLow,PressureMaxIn,PressureMinIn,WindSpeedMaxMPH,WindSpeedAvgMPH,GustSpeedMaxMPH,PrecipitationSumIn
2013-1-1,18.0,7.2,-2.0,6.0,0.3,-6.0,84,73,56,0.00,40.00,7,4,12,0.00
2013-1-2,31.0,20.1,6.0,29.0,16.3,1.0,94,85,74,0.00,40.00,13,6,17,0.09
2013-1-3,31.0,20.5,9.0,28.0,15.8,7.0,91,81,66,0.00,40.00,19,9,27,0.00
2013-1-4,37.0,24.2,12.0,23.0,18.2,10.0,94,78,54,0.00,40.00,9,5,16,0.00
2013-1-5,39.0,28.9,18.0,33.0,24.2,17.0,97,82,69,0.00,40.00,22,9,30,0.00
2013-1-6,31.0,22.2,15.0,20.0,15.7,9.0,87,76,61,0.00,40.00,21,7,31,0.00
2013-1-7,46.0,34.1,26.0,29.0,24.5,19.0,97,68,50,0.00,40.00,17,6,32,0.00
2013-1-8,47.0,34.3,22.0,32.0,28.5,22.0,99,81,54,0.00,40.00,15,6,21,0.00
2013-1-9,48.0,37.0,29.0,34.0,30.5,27.0,92,78,50,0.00,40.00,14,5,21,0.00
2013-1-10,40.0,34.7,29.0,38.0,31.1,25.0,100,87,61,0.00,40.00,10,5,16,2.35
2013-1-11,53.0,44.9,35.0,48.0,41.6,35.0,100,89,60,0.00,40.00,19,8,30,0.00
2013-1-12,52.0,23.3,13.0,39.0,14.5,4.0,90,68,60,0.00,40.00,27,13,36,0.00
2013-1-13,20.0,13.1,7.0,9.0,4.1,1.0,74,66,58,0.00,40.00,16,10,24,0.00
2013-1-14,30.0,17.3,5.0,13.0,6.7,1.0,85,64,40,0.00,40.00,10,4,16,0.00
2013-1-15,35.0,22.7,13.0,15.0,11.1,8.0,84,63,38,0.00,40.00,12,4,17,0.00
2013-1-16,49.0,34.4,23.0,33.0,24.0,11.0,92,66,51,0.00,40.00,17,11,23,0.00
2013-1-17,40.0,27.1,16.0,28.0,18.2,11.0,94,72,37,0.00,40.00,14,4,19,0.00
2013-1-18,55.0,41.4,23.0,32.0,29.0,21.0,96,63,39,0.00,40.00,22,10,41,0.00
2013-1-19,53.0,40.4,18.0,32.0,28.0,7.0,80,62,41,0.00,40.00,24,13,40,0.00
2013-1-20,18.0,13.1,9.0,10.0,6.4,2.0,88,74,62,0.00,40.00,16,8,22,0.95
2013-1-21,11.0,5.3,-2.0,4.0,-1.3,-9.0,82,73,65,0.00,40.00,21,12,32,0.00
2013-1-22,18.0,11.2,5.0,5.0,1.9,-1.0,79,66,55,0.00,40.00,8,4,14,0.00
2013-1-23,29.0,17.0,5.0,19.0,9.3,-3.0,85,71,63,0.00,40.00,20,10,29,0.00
2013-1-24,20.0,10.8,3.0,6.0,-1.1,-5.0,70,58,45,0.00,40.00,15,8,21,0.00
2013-1-25,41.0,25.5,13.0,25.0,16.3,6.0,89,68,53,0.00,40.00,19,8,26,0.00
2013-1-26,39.0,22.6,8.0,17.0,10.1,3.0,80,60,40,0.00,40.00,11,6,17,0.00
2013-1-27,39.0,35.1,31.0,38.0,31.6,16.0,99,88,53,0.00,40.00,10,5,17,4.82
2013-1-28,55.0,38.5,35.0,53.0,38.5,35.0,99,99,99,0.00,40.00,10,5,15,0.00
2013-1-29,60.0,39.1,31.0,59.0,37.7,30.0,99,95,90,0.00,40.00,19,10,30,0.74
2013-1-30,31.0,23.0,15.0,30.0,18.0,7.0,97,81,65,0.00,40.00,27,18,39,4.27
2013-1-31,15.0,4.4,-1.0,7.0,-5.4,-10.0,69,63,59,0.00,40.00,23,16,35,0.06
2013-2-1,25.0,7.8,-7.0,15.0,-2.2,-14.0,72,63,53,0.00,40.00,13,7,25,0.00
2013-2-2,34.0,22.7,17.0,29.0,15.0,7.0,93,72,55,0.00,40.00,22,1,34,1.94
2013-2-3,35.0,26.6,18.0,28.0,15.9,11.0,85,64,42,0.00,40.00,24,9,37,0.00
2013-2-4,36.0,25.4,17.0,26.0,20.0,15.0,92,80,65,0.00,40.00,18,8,24,0.00
2013-2-5,45.0,32.9,23.0,33.0,26.8,20.0,96,79,57,0.00,40.00,18,8,27,0.00
2013-2-6,47.0,35.8,25.0,34.0,29.9,24.0,99,81,49,0.00,40.00,11,5,19,0.00
2013-2-7,40.0,33.2,28.0,39.0,31.8,26.0,99,94,79,0.00,40.00,19,10,26,10.81
2013-2-8,28.0,26.6,24.0,26.0,23.6,21.0,92,88,83,0.00,40.00,14,6,19,0.00
2013-2-9,40.0,32.2,27.0,33.0,28.9,25.0,97,87,71,0.00,40.00,12,8,20,2.08
2013-2-10,51.0,37.7,32.0,46.0,34.1,22.0,99,87,57,0.00,40.00,32,14,43,1.05
2013-2-11,33.0,30.2,28.0,23.0,21.6,20.0,76,69,63,0.00,40.00,29,17,42,0.00
2013-2-12,44.0,32.6,21.0,26.0,23.0,18.0,93,69,46,0.00,40.00,12,6,20,0.00
2013-2-13,51.0,37.9,25.0,30.0,26.6,23.0,91,66,40,0.00,40.00,14,7,22,0.00
2013-2-14,42.0,35.9,23.0,31.0,27.9,16.0,84,72,52,0.00,40.00,21,13,33,0.01
2013-2-15,29.0,22.1,16.0,16.0,13.0,9.0,85,67,53,0.00,40.00,15,2,24,0.00
2013-2-16,38.0,23.8,10.0,20.0,15.2,9.0,96,72,41,0.00,40.00,9,4,15,0.00
2013-2-17,50.0,35.0,21.0,27.0,23.5,19.0,93,66,39,0.00,40.00,13,7,23,0.00
2013-2-18,41.0,30.6,17.0,35.0,24.5,9.0,96,77,65,0.00,40.00,29,13,41,0.00
2013-2-19,23.0,15.7,9.0,10.0,5.1,1.0,74,63,45,0.00,40.00,24,16,37,0.00
2013-2-20,22.0,12.9,0.0,9.0,2.4,-4.0,83,64,46,0.00,40.00,13,6,19,0.00
2013-2-21,25.0,21.7,18.0,24.0,16.7,9.0,99,81,62,0.00,40.00,19,12,30,2.92
2013-2-22,27.0,23.6,21.0,24.0,19.8,15.0,99,86,72,0.00,40.00,16,8,21,5.21
2013-2-23,34.0,21.8,8.0,20.0,15.1,7.0,95,76,55,0.00,40.00,10,4,16,0.00
2013-2-24,45.0,27.7,10.0,29.0,20.3,9.0,97,76,45,0.00,40.00,6,2,8,0.00
2013-2-25,39.0,33.3,27.0,31.0,28.4,26.0,97,83,60,0.00,40.00,11,5,16,0.00
2013-2-26,33.0,30.6,28.0,32.0,29.6,27.0,99,95,86,0.00,40.00,24,12,29,13.21
2013-2-27,32.0,28.2,25.0,28.0,25.2,21.0,99,88,76,0.00,40.00,18,12,28,3.31
2013-2-28,33.0,27.4,23.0,26.0,23.2,20.0,90,84,68,0.00,40.00,16,11,24,2.20
2013-3-1,30.0,26.4,24.0,24.0,21.4,16.0,94,81,68,0.00,40.00,12,9,18,3.27
2013-3-2,36.0,25.1,17.0,20.0,17.5,15.0,89,73,47,0.00,40.00,12,5,17,0.00
2013-3-3,36.0,27.4,17.0,25.0,19.3,15.0,91,72,52,0.00,40.00,15,8,22,2.08
2013-3-4,42.0,33.6,29.0,33.0,28.8,25.0,99,83,63,0.00,40.00,16,9,26,3.82
2013-3-5,32.0,29.1,26.0,32.0,24.4,18.0,99,82,68,0.00,40.00,23,13,33,5.91
2013-3-6,36.0,26.3,19.0,23.0,20.2,17.0,94,78,53,0.00,40.00,15,7,22,0.00
2013-3-7,38.0,26.2,15.0,24.0,20.8,15.0,99,81,55,0.00,40.00,15,6,20,0.00
2013-3-8,45.0,34.6,24.0,36.0,29.3,23.0,97,81,62,0.00,40.00,12,7,20,6.36
2013-3-9,43.0,39.6,37.0,43.0,39.4,36.0,99,98,93,0.00,40.00,12,6,17,9.06
2013-3-10,39.0,34.1,29.0,39.0,34.0,28.0,99,99,98,0.00,40.00,20,12,29,10.28
2013-3-11,29.0,26.4,22.0,29.0,22.2,17.0,98,84,68,0.00,40.00,17,12,26,2.46
2013-3-12,34.0,26.4,20.0,25.0,19.7,15.0,86,76,64,0.00,40.00,27,13,37,1.48
2013-3-13,36.0,25.7,16.0,20.0,16.3,12.0,82,68,46,0.00,40.00,16,6,24,0.00
2013-3-14,51.0,37.8,26.0,35.0,28.7,19.0,96,70,49,0.00,40.00,12,5,16,0.57
2013-3-15,60.0,41.0,28.0,44.0,36.6,28.0,99,86,51,0.00,40.00,16,4,22,0.00
2013-3-16,36.0,32.7,27.0,36.0,27.2,20.0,99,80,62,0.00,40.00,22,12,28,0.00
2013-3-17,41.0,31.3,22.0,29.0,21.8,18.0,82,68,51,0.00,40.00,17,11,24,0.00
2013-3-18,34.0,30.1,24.0,34.0,22.6,12.0,99,75,53,0.00,40.00,26,12,36,4.55
2013-3-19,41.0,27.0,18.0,23.0,13.0,8.0,80,56,34,0.00,40.00,16,9,25,0.00
2013-3-20,28.0,21.8,15.0,22.0,10.6,5.0,84,62,48,0.00,40.00,19,12,32,0.56
2013-3-21,37.0,23.3,11.0,18.0,11.9,6.0,86,63,38,0.00,40.00,9,5,15,0.00
2013-3-22,38.0,28.6,19.0,26.0,18.3,16.0,92,67,43,0.00,40.00,9,4,13,0.44
2013-3-23,36.0,31.4,27.0,30.0,23.9,18.0,96,75,48,0.00,40.00,16,7,22,1.91
2013-3-24,31.0,29.0,26.0,30.0,27.3,24.0,99,93,76,0.00,40.00,20,12,27,4.65
2013-3-25,35.0,30.3,26.0,29.0,24.4,20.0,99,79,58,0.00,40.00,19,11,25,0.14
2013-3-26,38.0,29.7,20.0,26.0,19.9,17.0,87,67,47,0.00,40.00,14,6,21,0.00
2013-3-27,48.0,34.4,20.0,27.0,23.5,19.0,97,67,38,0.00,40.00,9,3,14,0.00
2013-3-28,59.0,42.2,27.0,34.0,29.5,25.0,97,64,36,0.00,40.00,13,5,16,0.00
2013-3-29,65.0,48.1,30.0,36.0,32.5,30.0,99,60,28,0.00,40.00,9,5,16,0.00
2013-3-30,60.0,51.2,45.0,51.0,42.4,-99.9,97,75,55,0.00,40.00,16,6,21,0.99
2013-3-31,52.0,43.0,31.0,42.0,32.7,22.0,99,71,32,0.00,40.00,25,11,32,3.25
2013-4-1,40.0,30.6,22.0,25.0,17.5,14.0,80,59,38,0.00,40.00,16,10,25,0.00
2013-4-2,48.0,33.1,17.0,28.0,19.2,16.0,98,62,31,0.00,40.00,14,5,22,0.00
2013-4-3,54.0,38.5,27.0,26.0,23.2,20.0,93,58,32,0.00,40.00,13,4,17,0.00
2013-4-4,63.0,46.4,31.0,38.0,29.0,21.0,66,51,35,0.00,40.00,13,6,22,0.00
2013-4-5,62.0,48.0,31.0,38.0,32.5,29.0,91,58,32,0.00,40.00,13,7,24,0.00
2013-4-6,69.0,58.4,49.0,49.0,43.7,38.0,79,58,47,0.00,40.00,23,10,29,0.00
2013-4-7,71.0,51.4,34.0,44.0,40.0,34.0,99,70,37,0.00,40.00,17,7,21,0.69
2013-4-8,74.0,61.4,46.0,57.0,51.5,44.0,99,73,42,0.00,40.00,10,4,18,0.69
2013-4-9,63.0,51.6,42.0,60.0,51.3,42.0,99,98,85,0.00,40.00,17,10,26,4.45
2013-4-10,42.0,40.3,39.0,42.0,39.4,38.0,99,97,92,0.00,40.00,22,9,36,21.95
2013-4-11,40.0,37.5,35.0,40.0,36.0,32.0,99,94,84,0.00,40.00,17,7,22,7.54
2013-4-12,40.0,36.2,34.0,35.0,29.2,24.0,94,76,57,0.00,40.00,18,13,27,0.00
2013-4-13,52.0,41.5,29.0,35.0,27.5,21.0,80,58,43,0.00,40.00,16,8,23,0.00
2013-4-14,69.0,52.9,43.0,56.0,45.0,35.0,94,75,51,0.00,40.00,21,12,31,8.55
2013-4-15,49.0,41.2,37.0,42.0,32.9,26.0,90,72,57,0.00,40.00,19,7,26,0.64
2013-4-16,50.0,41.0,30.0,34.0,31.5,29.0,97,71,51,0.00,40.00,14,8,22,0.00
2013-4-17,46.0,43.0,41.0,44.0,40.0,32.0,99,90,58,0.00,40.00,24,11,41,24.17
2013-4-18,41.0,37.0,34.0,41.0,34.9,28.0,99,92,77,0.00,40.00,26,15,34,15.65
2013-4-19,45.0,36.3,30.0,28.0,23.6,20.0,80,61,40,0.00,40.00,27,18,41,0.00
2013-4-20,50.0,38.2,26.0,26.0,23.1,18.0,90,58,31,0.00,40.00,13,6,20,0.00
2013-4-21,68.0,53.8,41.0,43.0,35.1,26.0,67,50,30,0.00,40.00,21,10,34,0.54
2013-4-22,66.0,54.1,36.0,51.0,44.7,35.0,98,73,45,0.00,40.00,19,9,30,7.39
2013-4-23,43.0,36.0,32.0,36.0,28.5,24.0,97,75,51,0.00,40.00,19,14,29,2.58
2013-4-24,55.0,41.3,26.0,39.0,26.4,22.0,89,59,31,0.00,40.00,19,8,30,0.00
2013-4-25,65.0,48.4,31.0,35.0,31.4,29.0,93,56,30,0.00,40.00,14,7,22,0.00
2013-4-26,66.0,57.2,49.0,50.0,44.9,35.0,92,64,53,0.00,40.00,20,9,29,0.00
2013-4-27,69.0,55.9,42.0,49.0,45.5,42.0,99,71,42,0.00,40.00,8,4,14,0.00
2013-4-28,76.0,62.0,43.0,52.0,48.1,43.0,99,64,38,0.00,40.00,13,6,19,0.00
2013-4-29,84.0,68.2,57.0,63.0,56.2,52.0,88,67,41,0.00,40.00,11,5,16,0.00
2013-4-30,84.0,73.8,58.0,63.0,54.9,43.0,72,52,43,0.00,40.00,21,12,37,0.00
2013-5-1,58.0,48.4,39.0,50.0,42.1,37.0,99,79,61,0.00,40.00,23,17,35,1.13
2013-5-2,39.0,34.6,33.0,39.0,34.4,33.0,99,98,91,0.00,40.00,21,13,31,10.06
2013-5-3,35.0,33.9,33.0,34.0,33.1,33.0,99,97,92,0.00,40.00,17,12,25,6.16
2013-5-4,47.0,39.9,34.0,47.0,39.8,33.0,99,99,97,0.00,40.00,15,10,24,5.43
2013-5-5,56.0,48.7,42.0,52.0,47.3,42.0,99,94,84,0.00,40.00,13,9,19,0.00
2013-5-6,74.0,59.0,46.0,54.0,49.4,46.0,99,74,39,0.00,40.00,11,6,17,0.00
2013-5-7,78.0,63.4,47.0,56.0,48.6,44.0,98,64,32,0.00,40.00,7,2,14,0.00
2013-5-8,70.0,59.6,49.0,62.0,55.1,48.0,97,86,55,0.00,40.00,10,4,15,2.49
2013-5-9,71.0,60.9,54.0,62.0,57.8,53.0,99,90,59,0.00,40.00,19,7,29,3.36
2013-5-10,68.0,55.0,48.0,53.0,45.8,-99.9,99,77,43,0.00,40.00,16,8,24,0.00
2013-5-11,58.0,52.1,42.0,47.0,31.4,-99.9,85,48,28,0.00,40.00,27,13,38,0.00
2013-5-12,62.0,49.1,36.0,32.0,27.2,24.0,67,44,26,0.00,40.00,14,6,22,0.00
2013-5-13,78.0,59.9,37.0,52.0,41.7,32.0,87,54,33,0.00,40.00,15,6,24,0.00
2013-5-14,95.0,79.6,60.0,65.0,57.3,51.0,84,50,28,0.00,40.00,18,8,28,0.00
2013-5-15,83.0,72.5,59.0,54.0,48.8,45.0,71,44,29,0.00,40.00,17,7,24,0.00
2013-5-16,83.0,66.2,60.0,69.0,41.3,-99.9,88,72,59,0.00,40.00,12,4,17,0.00
2013-5-17,83.0,72.0,63.0,65.0,58.0,-99.9,97,73,45,0.00,40.00,10,4,17,0.00
2013-5-18,85.0,72.8,59.0,65.0,61.8,58.0,99,71,47,0.00,40.00,11,4,18,0.00
2013-5-19,87.0,72.3,60.0,67.0,62.3,59.0,99,74,40,0.00,40.00,29,8,40,8.81
2013-5-20,78.0,66.5,59.0,65.0,59.7,56.0,99,80,52,0.00,40.00,16,7,28,0.00
2013-5-21,69.0,62.7,59.0,61.0,51.3,44.0,97,68,46,0.00,40.00,15,8,26,0.00
2013-5-22,61.0,56.9,53.0,58.0,53.3,48.0,99,88,69,0.00,40.00,15,10,21,0.04
2013-5-23,70.0,59.8,52.0,53.0,47.9,41.0,99,69,37,0.00,40.00,16,9,23,0.00
2013-5-24,72.0,60.2,45.0,51.0,46.8,42.0,95,63,42,0.00,40.00,11,6,22,0.00
2013-5-25,62.0,56.2,51.0,57.0,52.9,49.0,99,88,71,0.00,40.00,19,10,28,2.20
2013-5-26,63.0,56.7,52.0,63.0,55.5,51.0,99,96,90,0.00,40.00,21,10,33,3.91
2013-5-27,78.0,65.4,58.0,66.0,60.7,58.0,99,86,54,0.00,40.00,24,6,34,13.37
2013-5-28,81.0,70.4,61.0,68.0,64.7,60.0,98,83,55,0.00,40.00,11,4,14,3.68
2013-5-29,81.0,68.8,61.0,70.0,65.3,60.0,99,89,66,0.00,40.00,17,5,36,1.02
2013-5-30,73.0,67.8,63.0,68.0,63.3,60.0,96,85,74,0.00,40.00,14,7,28,3.10
2013-5-31,77.0,69.0,58.0,65.0,62.2,57.0,98,80,55,0.00,40.00,14,7,24,1.09
2013-6-1,67.0,61.6,56.0,65.0,56.0,49.0,97,82,73,0.00,40.00,19,10,30,0.00
2013-6-2,68.0,58.8,50.0,51.0,46.6,43.0,96,65,45,0.00,40.00,18,8,27,0.00
2013-6-3,73.0,60.5,44.0,54.0,48.2,43.0,99,68,42,0.00,40.00,12,4,18,0.00
2013-6-4,68.0,61.4,56.0,64.0,58.1,53.0,99,89,75,0.00,40.00,14,6,25,2.63
2013-6-5,71.0,64.1,56.0,63.0,58.8,52.0,98,84,56,0.00,40.00,10,5,15,0.00
2013-6-6,72.0,62.0,52.0,58.0,53.0,51.0,97,74,50,0.00,40.00,14,6,20,0.00
2013-6-7,72.0,60.2,51.0,58.0,51.6,47.0,98,76,44,0.00,40.00,9,4,12,0.00
2013-6-8,75.0,61.9,49.0,63.0,55.9,49.0,99,82,50,0.00,40.00,15,5,20,5.52
2013-6-9,70.0,64.2,61.0,64.0,61.6,58.0,98,91,68,0.00,40.00,14,6,22,4.96
2013-6-10,81.0,68.1,60.0,65.0,61.8,59.0,98,82,51,0.00,40.00,11,4,14,0.00
2013-6-11,86.0,73.9,62.0,73.0,67.7,61.0,98,82,61,0.00,40.00,11,4,15,0.00
2013-6-12,89.0,76.5,65.0,73.0,68.5,57.0,97,78,54,0.00,40.00,24,9,36,0.86
2013-6-13,84.0,71.5,61.0,65.0,58.3,55.0,89,65,39,0.00,40.00,17,6,25,0.00
2013-6-14,77.0,67.4,63.0,67.0,63.2,60.0,99,86,66,0.00,40.00,32,6,45,11.15
2013-6-15,82.0,72.6,63.0,72.0,66.4,60.0,97,81,62,0.00,40.00,17,5,24,1.50
2013-6-16,88.0,76.0,65.0,70.0,62.5,54.0,98,68,33,0.00,40.00,9,5,14,0.00
2013-6-17,88.0,76.3,60.0,64.0,58.2,53.0,98,58,33,0.00,40.00,13,5,21,0.00
2013-6-18,87.0,73.7,60.0,63.0,57.7,54.0,94,60,35,0.00,40.00,9,4,16,0.00
2013-6-19,85.0,73.9,63.0,67.0,63.7,61.0,98,73,46,0.00,40.00,8,3,14,0.00
2013-6-20,88.0,75.6,66.0,69.0,65.8,64.0,93,73,48,0.00,40.00,11,4,23,0.00
2013-6-22,92.0,85.2,77.0,76.0,72.6,68.0,77,66,56,0.00,40.00,12,6,23,1.37
2013-6-23,80.0,76.8,69.0,73.0,70.9,67.0,93,82,71,0.00,40.00,20,8,49,0.67
2013-6-24,80.0,73.8,67.0,74.0,69.2,65.0,98,85,71,0.00,40.00,18,6,22,0.96
2013-6-25,90.0,79.8,71.0,76.0,71.8,67.0,97,78,49,0.00,40.00,11,4,20,0.00
2013-6-26,90.0,81.8,73.0,78.0,71.8,64.0,98,74,43,0.00,40.00,19,6,24,0.00
2013-6-27,85.0,76.5,65.0,71.0,67.4,64.0,97,74,55,0.00,40.00,15,6,21,1.92
2013-6-28,85.0,77.6,69.0,65.0,59.0,53.0,80,55,35,0.00,40.00,22,12,35,0.00
2013-6-29,77.0,70.5,66.0,65.0,59.3,55.0,79,67,53,0.00,40.00,21,12,35,0.00
2013-6-30,80.0,68.1,58.0,59.0,53.9,46.0,97,64,36,0.00,40.00,15,7,21,0.00
2013-7-1,83.0,69.4,56.0,60.0,53.2,48.0,89,59,35,0.00,40.00,14,6,20,0.00
2013-7-2,85.0,67.8,54.0,65.0,56.5,54.0,99,72,35,0.00,40.00,9,3,14,0.00
2013-7-3,83.0,69.4,54.0,65.0,58.5,54.0,99,71,44,0.00,40.00,9,2,13,0.00
2013-7-4,86.0,73.8,58.0,62.0,58.8,57.0,97,63,39,0.00,40.00,10,4,17,0.00
2013-7-5,89.0,76.5,64.0,66.0,61.8,59.0,86,62,43,0.00,40.00,9,4,18,0.00
2013-7-6,91.0,77.3,69.0,69.0,65.3,63.0,81,67,48,0.00,40.00,13,4,24,0.00
2013-7-7,91.0,81.7,71.0,74.0,69.2,64.0,85,66,51,0.00,40.00,12,5,24,1.13
2013-7-8,88.0,80.3,74.0,78.0,71.3,-99.9,96,77,63,0.00,40.00,7,4,12,0.00
2013-7-9,94.0,81.7,74.0,78.0,74.6,69.0,97,80,53,0.00,40.00,13,4,18,1.63
2013-7-10,84.0,75.4,63.0,77.0,58.8,-99.9,97,62,37,0.00,40.00,12,6,19,0.00
2013-7-11,85.0,72.4,57.0,65.0,58.7,56.0,99,66,38,0.00,40.00,10,4,15,0.00
2013-7-12,87.0,74.5,62.0,64.0,61.2,59.0,93,65,42,0.00,40.00,10,4,19,0.00
2013-7-13,82.0,73.5,64.0,68.0,63.1,58.0,81,70,59,0.00,40.00,11,5,18,0.00
2013-7-14,86.0,76.0,63.0,66.0,63.7,62.0,96,68,44,0.00,40.00,12,5,22,0.00
2013-7-15,89.0,77.4,63.0,73.0,68.1,63.0,98,75,52,0.00,40.00,13,4,17,0.00
2013-7-16,94.0,82.8,70.0,74.0,70.5,67.0,98,69,45,0.00,40.00,6,2,10,0.00
2013-7-17,96.0,83.2,71.0,74.0,70.6,67.0,97,69,40,0.00,40.00,7,2,14,0.00
2013-7-18,94.0,83.1,73.0,72.0,69.8,67.0,94,67,42,0.00,40.00,13,5,21,0.00
2013-7-19,93.0,84.1,77.0,74.0,69.2,63.0,76,61,44,0.00,40.00,11,7,20,0.00
2013-7-20,90.0,79.4,61.0,68.0,58.4,-99.9,99,54,32,0.00,40.00,7,2,10,0.00
2013-7-21,82.0,72.0,62.0,72.0,67.2,62.0,98,85,58,0.00,40.00,9,3,16,1.28
2013-7-22,93.0,78.1,65.0,73.0,68.5,65.0,98,76,43,0.00,40.00,13,3,18,0.00
2013-7-23,78.0,68.3,63.0,67.0,62.2,57.0,98,82,53,0.00,40.00,14,5,20,0.00
2013-7-24,82.0,70.8,57.0,64.0,58.9,56.0,98,69,44,0.00,40.00,10,3,13,0.00
2013-7-25,86.0,73.3,60.0,67.0,63.0,59.0,97,72,48,0.00,40.00,10,4,21,0.00
2013-7-26,78.0,70.7,59.0,69.0,58.2,50.0,98,67,43,0.00,40.00,18,8,27,0.00
2013-7-27,72.0,62.0,51.0,54.0,49.3,44.0,98,67,40,0.00,40.00,14,7,23,0.00
2013-7-28,77.0,63.1,50.0,54.0,49.2,47.0,92,64,37,0.00,40.00,12,6,22,0.00
2013-7-29,73.0,64.3,50.0,62.0,56.0,50.0,99,76,52,0.00,40.00,9,-9,14,3.64
2013-7-30,72.0,66.9,63.0,69.0,65.6,62.0,98,95,85,0.00,40.00,7,4,12,2.34
2013-7-31,85.0,74.0,64.0,68.0,65.1,62.0,98,76,48,0.00,40.00,7,3,12,0.00
2013-8-1,89.0,73.6,59.0,67.0,61.7,54.0,98,71,32,0.00,40.00,6,2,10,0.00
2013-8-2,84.0,72.0,63.0,67.0,64.0,57.0,97,77,52,0.00,40.00,16,4,21,0.00
2013-8-3,80.0,70.2,61.0,63.0,57.7,53.0,97,68,41,0.00,40.00,9,4,12,0.00
2013-8-4,82.0,69.4,54.0,62.0,57.5,54.0,99,69,42,0.00,40.00,10,3,16,0.00
2013-8-5,85.0,72.0,65.0,73.0,67.2,61.0,97,85,60,0.00,40.00,10,3,17,0.00
2013-8-6,91.0,76.7,66.0,76.0,70.2,65.0,98,82,49,0.00,40.00,9,3,15,0.00
2013-8-7,83.0,74.6,67.0,70.0,64.8,60.0,98,74,48,0.00,40.00,15,6,20,0.00
2013-8-8,82.0,69.8,58.0,66.0,60.7,58.0,98,76,46,0.00,40.00,6,2,11,0.00
2013-8-9,83.0,72.2,62.0,68.0,62.6,55.0,98,74,44,0.00,40.00,11,4,16,0.00
2013-8-10,85.0,70.9,55.0,64.0,58.8,54.0,99,69,40,0.00,40.00,7,2,25,0.69
2013-8-11,87.0,74.5,62.0,66.0,62.8,60.0,95,69,45,0.00,40.00,9,4,17,1.25
2013-8-12,84.0,73.7,63.0,70.0,64.3,55.0,98,76,43,0.00,40.00,13,6,21,3.28
2013-9-14,80.0,63.8,45.0,50.0,41.1,-99.9,98,51,28,0.00,40.00,9,4,16,1.15
2013-9-15,69.0,65.3,62.0,64.0,55.6,50.0,97,71,52,0.00,40.00,16,9,22,1.69
2013-9-16,65.0,60.1,51.0,59.0,52.7,51.0,99,77,62,0.00,40.00,12,7,19,0.00
2013-9-17,67.0,62.4,55.0,66.0,61.5,55.0,99,97,92,0.00,40.00,8,5,13,0.00
2013-9-18,78.0,69.5,65.0,72.0,67.4,64.0,99,93,80,0.00,40.00,6,5,14,0.00
2013-9-19,86.0,78.3,73.0,72.0,70.3,67.0,90,77,57,0.00,40.00,17,8,44,0.00
2013-9-20,70.0,62.8,54.0,51.0,49.3,48.0,86,62,48,0.00,40.00,14,10,30,0.00
2013-10-18,50.0,44.9,38.0,40.0,33.6,28.0,96,66,43,0.00,40.00,16,8,22,0.00
2013-10-19,59.0,46.3,34.0,38.0,29.1,-99.9,95,58,31,0.00,40.00,17,8,28,1.29
2013-10-20,62.0,50.9,37.0,42.0,39.2,36.0,98,68,43,0.00,40.00,13,6,24,0.00
2013-10-21,51.0,43.9,35.0,37.0,30.7,27.0,89,61,42,0.00,40.00,17,8,24,0.00
2013-10-22,44.0,40.0,38.0,42.0,37.6,31.0,99,90,72,0.00,40.00,15,6,21,8.86
2013-10-23,41.0,37.2,32.0,38.0,34.7,30.0,99,91,75,0.00,40.00,9,5,15,7.67
2013-10-24,45.0,38.6,32.0,34.0,30.0,28.0,93,72,50,0.00,40.00,16,8,21,0.00
2013-10-25,57.0,42.6,25.0,30.0,28.0,25.0,98,61,35,0.00,40.00,16,8,24,0.00
2013-10-26,53.0,44.7,34.0,35.0,26.4,-99.9,81,53,42,0.00,40.00,21,10,28,0.00
2013-10-27,64.0,45.3,27.0,35.0,30.9,26.0,98,64,31,0.00,40.00,13,5,21,2.06
2013-10-28,55.0,44.1,35.0,39.0,30.9,-99.9,97,70,51,0.00,40.00,15,10,19,0.00
2013-10-29,55.0,46.8,40.0,53.0,43.7,36.0,99,88,72,0.00,40.00,15,8,21,5.89
2013-10-30,63.0,55.8,52.0,60.0,55.0,51.0,99,97,83,0.00,40.00,17,7,28,6.93
2013-10-31,50.0,45.8,41.0,50.0,42.5,39.0,99,88,72,0.00,40.00,13,7,19,0.00
2013-11-3,58.0,44.2,34.0,35.0,33.2,30.0,97,70,35,0.00,40.00,17,6,29,0.00
2013-11-4,55.0,50.6,47.0,47.0,43.4,36.0,91,77,55,0.00,40.00,10,6,21,3.25
2013-11-5,54.0,47.6,42.0,54.0,45.4,41.0,99,92,79,0.00,40.00,13,5,23,12.65
2013-11-6,45.0,36.8,31.0,39.0,31.8,26.0,99,83,47,0.00,40.00,17,11,27,1.93
2013-11-7,46.0,32.6,28.0,31.0,26.3,21.0,97,80,41,0.00,40.00,12,4,21,0.00
2013-11-8,62.0,47.0,28.0,35.0,30.3,24.0,84,55,33,0.00,40.00,17,8,29,0.00
2013-11-9,58.0,45.1,39.0,39.0,30.0,-99.9,76,61,43,0.00,40.00,16,8,26,0.00
2013-11-15,58.0,41.6,28.0,40.0,32.4,28.0,98,73,40,0.00,40.00,9,4,17,0.00
2013-11-16,68.0,52.3,44.0,55.0,42.5,-99.9,95,78,59,0.00,40.00,15,8,27,0.00
2013-11-17,52.0,46.8,42.0,47.0,41.6,36.0,99,83,64,0.00,40.00,16,9,21,4.60
2013-11-18,49.0,39.6,32.0,36.0,32.4,31.0,95,76,53,0.00,40.00,14,8,24,0.00
2013-11-19,57.0,40.8,30.0,33.0,29.6,27.0,97,70,33,0.00,40.00,17,7,27,0.00
2013-11-20,47.0,41.5,35.0,38.0,35.4,27.0,99,80,46,0.00,40.00,14,8,23,4.78
2013-11-21,37.0,30.3,24.0,37.0,29.6,23.0,100,96,90,0.00,40.00,16,9,26,1.37
2013-11-22,25.0,19.6,16.0,22.0,14.0,9.0,95,78,59,0.00,40.00,17,8,24,0.04
2013-11-23,20.0,11.6,2.0,11.0,0.7,-99.9,85,68,61,0.00,40.00,13,6,20,0.00
2013-11-24,28.0,15.8,2.0,11.0,5.2,-1.0,88,65,39,0.00,40.00,14,6,20,0.08
2013-11-25,38.0,30.4,26.0,28.0,20.2,10.0,88,66,50,0.00,40.00,15,9,21,0.00
2013-11-26,29.0,24.4,17.0,25.0,15.2,8.0,90,68,45,0.00,40.00,22,11,30,0.00
2013-11-27,29.0,20.2,9.0,14.0,9.9,7.0,89,65,47,0.00,40.00,11,6,20,0.00
2013-11-28,33.0,25.5,18.0,18.0,16.0,14.0,87,67,53,0.00,40.00,14,6,24,0.00
2013-11-29,42.0,29.8,11.0,26.0,20.2,10.0,96,70,45,0.00,40.00,11,5,17,0.00
2013-11-30,53.0,37.2,33.0,32.0,23.3,-99.9,85,64,45,0.00,40.00,9,6,14,0.00
2013-12-7,13.0,6.0,-4.0,-2.0,-9.8,-99.9,76,56,45,0.00,40.00,9,4,15,0.00
2013-12-8,18.0,14.9,12.0,15.0,8.4,-2.0,93,75,53,0.00,40.00,13,8,22,6.03
2013-12-9,10.0,4.4,-1.0,6.0,-2.2,-7.0,89,74,54,0.00,40.00,15,8,22,0.00
2013-12-10,22.0,18.9,11.0,14.0,8.2,0.0,71,63,49,0.00,40.00,18,8,26,0.00
2013-12-11,23.0,7.6,2.0,20.0,-1.2,-7.0,89,66,54,0.00,40.00,15,7,23,0.00
2013-12-12,30.0,20.2,4.0,16.0,11.2,-3.0,90,68,54,0.00,40.00,11,4,16,0.00
2013-12-13,31.0,23.9,12.0,24.0,19.7,11.0,94,83,69,0.00,40.00,12,5,17,0.00
2013-12-14,24.0,19.1,14.0,20.0,12.2,-99.9,93,82,75,0.00,40.00,17,10,23,0.00
2013-12-15,19.0,15.1,11.0,11.0,8.7,6.0,82,75,67,0.00,40.00,9,4,15,0.00
2013-12-16,35.0,24.0,13.0,26.0,19.9,9.0,95,84,70,0.00,40.00,9,6,16,0.00
2013-12-17,37.0,30.7,18.0,26.0,20.1,11.0,89,66,41,0.00,40.00,24,11,32,0.00
2013-12-18,49.0,35.0,19.0,31.0,23.4,12.0,76,63,48,0.00,40.00,16,6,31,0.00
2013-12-19,37.0,30.8,27.0,31.0,29.1,26.0,99,93,72,0.00,40.00,12,8,17,0.00
2013-12-20,26.0,22.1,19.0,26.0,21.4,18.0,99,97,92,0.00,40.00,9,5,12,0.00
2013-12-21,24.0,21.3,20.0,24.0,17.1,-99.9,97,90,86,0.00,40.00,9,4,13,1.19
2013-12-22,25.0,16.8,6.0,24.0,12.6,0.0,99,83,70,0.00,40.00,14,10,21,2.82
2013-12-23,8.0,2.3,-9.0,0.0,-8.6,-20.0,77,60,42,0.00,40.00,15,10,24,0.00
2013-12-24,18.0,4.4,-17.0,17.0,-3.8,-23.0,92,68,57,0.00,40.00,12,6,19,0.00
2013-12-25,36.0,24.1,19.0,29.0,19.5,12.0,97,83,63,0.00,40.00,16,8,24,0.00
2013-12-26,38.0,28.3,18.0,25.0,20.8,13.0,85,73,58,0.00,40.00,11,6,18,0.00
2013-12-27,48.0,33.0,17.0,28.0,23.8,16.0,94,71,43,0.00,40.00,11,6,20,0.00
2013-12-28,49.0,38.4,34.0,31.0,24.6,-99.9,86,63,48,0.00,40.00,17,9,29,0.00
2013-12-29,19.0,8.8,0.0,16.0,0.6,-9.0,87,70,43,0.00,40.00,26,14,37,0.17
2013-12-30,17.0,9.7,-1.0,15.0,4.7,-8.0,89,79,60,0.00,40.00,12,5,17,1.48
2013-12-31,16.0,11.2,7.0,10.0,7.0,4.0,87,83,75,0.00,40.00,14,8,18,0.00
2014-1-1,11.0,7.5,4.0,7.0,4.3,0.0,90,86,81,0.00,40.00,16,10,21,2.78
2014-1-2,7.0,0.3,-8.0,0.0,-4.4,-11.0,86,80,65,0.00,40.00,11,7,17,0.00